Theta_e
318 317 320 320 321 321 323 328 329 331 329 326 326 328 327 325 328 331 333 332 333 335 332 333 330 328 333 333 333 334 334 336 338 335 334 334 331 332 332 332 335 337 338 339 339 339 339 339 336 334 336 336 336 337 339 338 337 336 336 336 335 333 332 332 332 331 332 332 332 331 331 330 331 332 332 331 330 330 329 329 329 330 329 330 330 330 330 330 330 330 329 329 328 326 326 325 326
319 319 321 320 321 318 323 330 331 331 328 322 325 328 324 323 327 333 338 335 336 335 333 336 336 336 339 337 335 334 334 334 332 331 332 331 332 332 332 333 333 337 339 338 339 339 338 338 335 334 333 334 335 335 337 337 336 335 334 334 333 333 332 331 331 331 333 333 332 331 331 331 331 331 331 331 330 330 329 329 329 329 329 330 330 330 330 330 330 329 329 328 328 327 326 326 326
319 320 321 321 321 320 328 329 327 329 326 324 328 326 323 327 330 336 338 334 334 333 335 336 338 339 337 338 336 335 335 333 331 330 331 332 333 332 333 333 333 337 338 338 339 338 338 337 335 334 330 332 335 335 336 335 335 335 333 333 332 332 331 330 331 333 334 334 331 330 332 332 331 331 333 332 331 330 329 329 328 329 329 330 330 330 330 329 329 329 329 328 327 327 327 325 325
320 321 320 322 321 327 342 336 331 331 324 325 328 326 329 332 331 335 334 331 333 333 337 338 338 334 333 338 335 335 337 334 333 331 332 332 333 333 333 334 335 338 338 338 338 337 338 336 334 333 330 330 332 334 334 334 333 332 332 332 332 332 331 330 332 334 335 334 331 330 331 332 331 331 333 332 331 329 329 329 328 328 329 329 329 329 329 329 329 329 329 328 326 325 326 326 325
320 321 318 322 324 327 337 330 329 328 323 326 326 325 332 334 333 334 332 332 333 331 335 339 340 333 332 337 336 338 336 333 332 331 332 332 333 333 333 335 336 337 338 338 338 338 337 335 333 332 330 328 331 333 333 333 332 331 331 330 331 332 331 331 333 335 335 334 332 332 331 330 330 330 332 331 330 329 328 328 327 328 328 329 329 329 328 328 328 328 328 328 327 326 326 326 325
320 321 319 320 319 319 325 320 322 326 325 329 326 328 332 333 334 334 333 331 330 328 331 337 339 338 338 335 333 335 332 333 333 331 332 332 333 333 333 336 336 338 337 337 338 337 335 334 331 330 329 326 328 330 331 331 331 332 331 330 331 332 331 331 332 334 334 335 334 333 332 330 330 331 332 329 327 327 328 328 328 328 328 329 329 329 328 329 328 327 327 326 327 326 325 325 323
318 320 324 323 320 321 326 322 327 329 322 325 326 330 333 332 332 335 334 330 331 329 331 336 336 339 341 334 332 333 331 333 332 332 333 333 334 332 334 335 336 337 337 338 337 336 335 333 330 329 329 328 327 329 330 330 331 331 330 330 331 331 330 330 332 333 334 336 334 333 332 330 330 330 329 327 325 327 327 328 328 328 328 329 328 328 328 328 327 325 326 326 325 325 324 322 322
319 322 328 331 331 330 332 327 329 329 318 319 324 329 332 331 331 335 334 333 334 332 336 338 335 340 338 333 336 333 331 333 332 333 333 333 333 332 334 334 336 337 337 337 337 337 336 333 330 329 329 329 328 330 330 330 331 329 328 330 330 330 330 330 332 333 334 335 335 333 332 331 329 328 327 328 329 328 328 328 328 327 328 328 328 328 328 327 326 325 325 325 324 323 321 321 320
320 322 327 331 329 329 337 330 324 324 320 320 322 329 331 328 330 334 333 330 331 336 341 338 335 336 335 337 341 333 330 333 332 333 332 333 333 333 333 333 336 337 337 337 337 337 336 333 330 330 328 325 328 331 331 331 331 329 329 330 330 330 330 331 331 333 334 334 334 333 333 331 329 328 328 328 328 328 328 329 328 327 327 328 327 327 327 326 324 325 325 324 323 322 320 320 319
321 323 328 331 328 326 331 328 324 323 322 322 323 329 331 328 328 330 332 328 331 340 340 334 336 337 336 341 341 332 331 332 332 333 333 334 333 332 333 333 335 336 337 337 337 337 336 332 330 331 327 325 329 330 331 331 331 329 329 330 330 331 331 332 331 332 333 332 332 332 332 331 330 328 327 326 325 326 327 326 327 327 326 327 327 326 326 325 325 325 324 322 321 321 320 320 319
326 329 331 332 329 326 326 329 332 331 325 322 324 326 328 328 328 328 330 330 331 339 337 332 340 344 342 343 339 332 330 331 332 333 332 334 333 332 333 333 335 335 336 336 336 336 335 331 330 331 327 326 328 327 329 330 330 329 330 331 330 331 331 332 332 332 333 332 332 333 333 332 331 328 327 326 325 325 325 325 326 326 326 326 325 325 324 324 324 324 323 321 320 321 320 320 320
328 334 338 333 330 329 328 332 335 336 333 327 327 325 323 326 327 327 330 333 333 337 338 334 337 343 349 350 340 331 329 331 332 333 333 333 333 332 332 333 335 335 336 336 335 336 334 331 329 329 327 327 328 325 325 328 329 327 329 330 329 329 331 331 331 331 332 332 332 333 333 332 332 329 328 327 325 326 326 325 325 326 325 325 325 324 322 321 321 320 320 320 320 320 320 321 321
332 336 339 331 330 331 328 329 329 331 335 332 328 322 320 325 327 328 332 335 335 340 337 332 335 338 347 348 337 331 330 331 332 333 333 333 333 332 332 333 335 335 335 335 334 335 334 331 330 329 327 326 328 325 323 326 328 327 328 329 328 329 330 329 329 330 330 330 330 331 332 332 332 330 329 327 325 326 327 325 325 326 324 324 324 322 320 319 318 318 318 319 319 320 321 321 321
331 336 337 330 328 331 329 327 324 326 331 332 325 319 320 325 328 329 331 334 337 339 331 326 334 338 340 338 339 340 333 330 332 333 333 333 332 332 332 332 334 335 334 334 334 334 333 331 330 329 327 326 325 325 326 327 328 329 329 329 328 328 328 327 328 331 329 328 329 330 331 331 331 330 329 328 326 326 325 325 326 326 324 324 322 320 318 317 317 317 317 318 319 320 321 321 321
327 339 339 334 328 327 328 324 324 327 331 330 322 321 323 321 326 332 330 333 334 329 325 327 331 332 335 335 340 342 332 330 332 332 333 332 332 332 333 332 334 334 334 334 334 334 332 331 331 330 328 326 323 325 329 328 328 329 329 331 329 327 328 326 327 329 328 328 330 331 331 330 330 330 329 329 327 325 322 323 326 326 324 322 320 317 317 316 316 316 316 316 317 319 320 320 320
330 341 336 333 330 328 327 322 324 327 330 328 317 319 325 319 322 330 325 327 332 325 328 333 328 328 334 334 333 332 331 332 331 332 333 332 333 333 332 332 333 334 334 334 334 334 332 331 331 331 330 328 326 325 327 327 327 328 328 330 329 327 327 327 327 328 328 329 330 330 331 330 329 329 329 329 328 327 324 322 323 324 323 321 318 317 317 316 316 315 315 315 316 317 319 319 320
327 334 332 330 329 328 326 322 324 326 328 324 316 319 325 322 318 320 318 325 335 330 332 333 325 328 333 332 330 329 331 331 331 333 332 332 333 332 331 332 332 333 334 334 335 335 333 332 331 330 330 329 328 326 324 323 325 327 327 327 328 328 326 326 326 327 328 328 329 330 330 330 329 329 329 328 327 327 326 323 322 321 321 319 317 318 317 316 316 316 316 316 317 318 319 320 320
322 329 330 327 328 329 327 325 322 323 326 321 318 322 324 325 320 318 321 330 336 332 333 332 329 329 329 329 330 329 329 330 331 332 332 332 332 332 332 332 331 332 332 333 336 336 333 333 332 331 331 329 329 328 325 323 323 325 326 326 327 328 326 326 324 324 326 327 328 329 329 328 329 329 328 328 327 326 325 323 321 319 320 319 318 318 317 317 316 316 316 317 318 319 319 319 320
326 333 328 326 331 330 327 325 321 319 323 321 320 322 323 324 323 320 324 332 334 336 335 332 335 334 330 329 329 329 329 330 331 331 332 331 331 332 332 332 332 331 331 332 335 337 333 333 333 331 330 329 329 328 327 324 322 322 324 325 325 327 326 325 324 323 325 326 327 327 327 327 327 328 328 328 327 326 324 323 320 319 319 319 318 318 317 317 317 317 317 317 319 319 319 320 320
328 331 326 330 333 329 324 324 322 320 321 323 321 320 322 322 322 321 327 335 333 337 337 333 337 339 338 331 326 328 329 330 331 331 331 331 332 332 332 332 332 332 332 332 334 336 334 332 334 333 330 330 329 328 328 326 323 321 321 321 322 324 325 325 325 324 324 325 326 326 326 326 326 326 327 327 327 326 325 323 321 319 319 319 318 318 318 318 317 317 317 317 318 319 319 319 320
325 325 329 334 331 326 324 323 323 321 319 323 323 320 321 319 320 323 328 333 332 334 334 332 336 339 341 332 325 327 328 330 330 330 331 331 331 331 332 332 332 332 332 332 333 336 334 331 333 333 331 330 329 329 328 327 325 322 319 318 318 320 324 325 325 325 325 324 325 325 325 325 325 325 326 326 327 327 326 324 322 320 319 318 318 318 318 318 318 317 317 317 318 318 318 318 319
325 324 328 331 324 322 322 321 320 318 316 321 324 321 321 318 318 324 329 328 328 332 330 331 331 333 339 332 326 327 327 329 330 330 331 331 331 331 331 331 332 331 332 332 332 334 335 333 333 332 332 331 329 329 329 328 326 323 321 319 317 317 320 323 324 324 325 324 323 324 324 325 325 325 325 326 326 326 326 325 323 321 320 319 318 318 318 318 318 318 317 318 317 317 317 317 318
327 325 327 327 320 320 319 316 316 315 318 322 323 320 319 319 318 323 328 324 324 327 325 327 325 324 330 329 326 327 327 328 329 330 330 330 331 331 331 331 332 331 331 332 331 333 334 335 335 333 332 331 330 329 329 328 327 325 323 321 320 317 316 319 321 321 323 325 324 323 323 324 325 325 325 325 325 325 325 324 323 321 321 320 318 317 318 318 318 318 318 318 317 317 317 317 318
327 328 329 325 317 317 316 315 315 315 320 321 318 317 318 322 320 319 324 323 322 320 312 313 317 320 326 328 328 327 327 328 328 329 329 330 330 331 331 331 332 332 332 332 332 332 332 335 336 333 333 332 330 330 329 328 328 327 325 324 322 320 317 316 317 318 321 324 324 323 322 323 324 324 325 325 324 324 323 322 321 320 320 320 318 318 317 317 317 318 317 317 317 317 316 316 317
327 329 329 321 315 317 314 316 318 315 318 316 315 317 319 321 318 317 322 322 320 318 316 318 320 324 329 332 330 327 327 327 328 329 328 329 330 330 331 331 331 332 332 332 332 332 331 333 335 334 332 331 331 330 330 329 328 328 327 325 324 322 320 318 316 316 319 322 324 324 323 322 323 323 324 324 324 323 322 320 319 319 319 318 318 317 317 317 317 317 317 317 317 317 316 316 317
329 330 328 321 316 315 313 317 319 317 316 314 316 318 319 318 315 318 320 320 320 322 331 336 333 335 333 331 330 326 327 327 327 328 328 329 329 330 330 331 331 331 332 332 332 332 331 332 334 335 333 331 332 331 330 329 329 328 328 327 325 324 322 320 319 318 318 319 321 323 323 322 321 321 322 323 323 321 320 319 318 318 318 318 317 317 317 318 317 317 317 317 317 316 316 317 317
331 329 328 325 321 316 315 318 318 318 317 316 318 319 320 316 315 320 319 322 327 331 340 338 337 345 336 330 329 326 327 327 327 327 327 328 328 330 330 330 331 331 331 332 331 331 331 331 331 334 335 333 332 332 331 330 329 329 329 328 326 326 324 323 322 321 319 318 319 320 322 322 320 320 321 321 321 320 319 320 320 320 319 318 317 316 316 317 317 317 317 317 317 316 316 317 316
330 328 328 328 326 323 320 318 317 317 316 319 320 319 321 316 316 321 319 321 325 333 349 342 338 343 333 329 329 326 327 326 327 327 327 328 328 329 329 329 330 330 330 331 331 330 331 332 331 332 333 333 333 333 332 331 330 329 329 329 327 326 326 325 324 323 323 321 320 319 320 321 320 319 319 320 320 320 321 322 323 322 322 321 319 318 316 316 316 316 316 316 317 317 317 316 315
329 327 330 329 327 330 325 319 319 317 315 320 320 317 319 317 318 322 321 322 322 327 346 350 342 337 330 329 329 327 327 326 326 326 327 328 328 328 329 329 329 329 330 330 330 330 330 332 331 331 331 331 333 333 332 331 331 330 329 330 329 328 327 326 326 325 325 324 323 321 319 319 320 319 318 318 319 321 322 323 324 323 323 323 322 321 319 318 317 316 317 317 317 318 317 317 315
329 328 333 333 330 334 330 323 321 317 315 320 320 317 319 319 319 321 321 323 324 324 333 343 342 336 329 328 328 328 326 325 326 326 327 328 327 328 328 329 329 329 329 329 329 330 330 330 330 331 331 331 331 332 332 332 332 331 330 330 329 329 327 327 326 326 326 325 325 323 321 318 318 319 318 318 319 321 323 323 324 324 323 324 324 323 322 321 319 318 318 318 319 318 318 316 314
332 330 333 335 336 340 333 324 320 317 317 319 320 319 322 323 322 321 320 320 323 322 323 329 334 334 330 328 328 328 327 326 327 327 327 328 327 328 328 328 328 329 329 329 330 329 329 330 330 330 330 330 330 330 331 332 332 331 331 331 330 329 328 327 326 326 326 325 325 324 323 320 318 317 319 319 319 320 322 323 323 323 323 324 324 324 323 323 321 319 318 318 318 318 317 315 314
335 334 334 334 337 342 336 324 320 322 321 319 321 322 324 329 328 325 320 318 320 321 321 322 325 329 329 328 327 327 327 325 326 327 327 327 327 328 328 328 328 328 329 329 330 329 330 330 330 330 329 329 329 329 330 331 332 331 332 331 331 330 329 327 326 325 325 326 326 325 324 322 319 316 316 319 320 320 320 322 322 322 323 324 324 324 324 324 322 320 319 319 318 317 316 315 314
333 335 337 335 336 339 336 328 323 325 323 319 321 324 327 329 326 324 319 318 320 319 320 320 320 323 324 326 326 326 327 326 326 326 327 328 328 328 328 328 328 328 329 329 329 329 330 330 330 330 329 329 329 329 329 330 330 331 332 332 331 331 330 328 326 325 325 326 327 326 325 324 322 318 316 316 318 319 320 321 321 322 322 323 323 324 324 323 322 321 320 320 319 317 316 315 316
333 334 337 336 336 337 336 335 327 324 324 321 322 323 326 326 322 323 320 318 322 321 321 320 319 319 319 323 325 326 326 327 326 325 326 328 327 328 328 328 328 328 328 328 329 329 329 329 330 330 330 330 330 329 329 329 330 330 331 331 331 331 330 329 328 326 326 326 326 326 326 324 323 322 320 318 318 318 319 319 320 321 322 322 322 322 323 323 322 321 321 321 321 320 318 317 317
333 334 335 334 336 336 336 338 328 323 325 324 325 323 323 325 324 326 323 319 323 325 323 321 318 317 317 318 322 324 325 326 325 325 326 326 327 328 328 328 328 328 328 328 328 328 328 328 329 329 329 330 330 330 330 329 329 329 329 329 330 331 331 330 330 328 327 327 327 326 326 325 324 323 323 323 322 321 321 320 320 319 320 321 321 321 322 322 322 322 322 322 322 322 321 320 320
333 332 335 336 338 336 334 337 327 322 326 326 326 326 323 324 323 325 324 319 321 324 321 319 318 316 315 315 316 319 322 324 323 323 324 325 327 328 328 329 328 329 329 328 328 328 328 328 327 328 328 329 329 329 329 329 329 328 328 328 329 328 329 330 330 330 328 327 327 326 325 325 326 325 324 324 324 324 323 323 322 320 320 320 320 321 320 320 321 321 322 322 322 323 323 322 322
332 332 336 337 339 338 334 334 326 321 327 328 326 327 325 325 324 323 323 321 320 321 320 319 319 317 317 316 315 315 318 319 319 320 322 324 326 327 327 328 328 328 328 329 328 328 328 328 327 327 328 327 328 328 328 328 329 328 328 328 328 328 328 329 329 329 327 326 326 326 325 325 325 325 325 324 324 324 324 324 323 322 321 321 321 320 320 321 322 322 323 323 323 323 323 323 323
331 333 336 337 338 338 333 329 324 320 326 332 328 326 326 324 324 323 323 323 322 321 320 320 320 319 318 318 317 315 314 315 316 317 318 322 324 325 327 327 328 328 328 329 329 329 329 329 328 328 328 327 327 327 327 328 328 328 328 328 328 328 327 327 327 326 325 325 325 326 326 325 325 325 325 324 324 323 323 323 323 322 322 322 322 321 322 323 323 324 324 323 322 322 323 323 323
332 333 335 337 335 334 331 325 320 319 326 332 327 325 325 323 323 323 322 323 323 321 320 321 321 321 320 319 318 317 315 315 315 315 315 319 322 324 326 326 327 328 328 328 328 329 329 328 329 328 328 328 327 327 327 327 327 327 327 326 326 326 326 326 325 325 325 325 326 326 325 325 325 324 324 323 322 322 323 323 322 322 322 322 322 322 322 323 323 323 324 323 322 322 322 323 323
331 332 334 337 334 334 336 328 318 318 323 325 323 323 324 323 323 323 321 321 322 322 321 321 320 321 321 320 319 318 317 317 316 314 313 315 318 322 324 325 326 327 327 328 328 328 328 328 329 328 328 328 327 327 327 326 326 325 325 324 325 325 325 325 325 325 325 325 325 325 325 325 324 323 322 321 321 321 322 322 322 322 322 322 322 323 322 322 322 323 324 324 322 322 322 322 322
330 330 332 337 335 333 336 329 320 320 321 319 321 326 328 328 330 327 323 320 319 319 320 320 320 319 319 320 320 319 318 317 316 315 313 311 314 318 321 323 325 326 326 327 327 328 328 328 328 328 328 328 327 327 327 326 325 325 324 324 325 325 325 325 324 325 325 325 325 325 326 325 324 323 322 321 321 320 321 321 321 321 322 322 322 322 322 321 322 322 323 324 323 322 322 321 321
331 330 331 335 336 331 328 326 327 331 331 323 322 332 337 337 337 333 328 325 322 320 319 319 318 318 318 318 318 318 317 317 316 316 314 311 311 314 318 321 323 325 326 326 327 327 328 328 328 328 328 327 327 326 327 326 325 325 325 324 324 324 324 324 324 324 324 325 326 327 327 326 325 324 324 323 321 320 320 320 321 321 321 322 321 322 322 322 322 322 322 323 323 322 322 322 322
332 331 332 334 333 330 326 328 334 338 337 325 320 331 338 335 334 334 333 333 329 323 320 319 318 317 317 316 316 317 316 316 316 315 314 312 311 311 314 318 321 323 324 325 326 326 327 327 327 327 327 327 327 326 326 326 325 325 325 325 325 324 324 325 325 325 325 326 327 327 327 327 326 326 325 324 323 322 321 321 321 321 321 322 322 322 323 322 322 322 322 322 322 322 322 322 321
332 329 332 334 331 331 330 331 336 335 334 325 319 326 333 330 330 332 332 334 333 328 323 321 318 316 316 315 315 316 316 316 316 315 314 313 311 310 312 314 318 320 321 323 325 325 326 327 327 327 327 327 326 326 326 326 326 325 325 325 325 325 325 325 325 325 325 326 326 326 327 327 326 326 326 325 324 323 323 322 322 321 322 322 323 323 323 323 323 323 323 323 323 322 322 322 322
331 325 329 332 330 332 332 332 334 330 332 333 323 322 331 333 330 327 326 330 332 329 326 324 321 319 317 316 315 315 315 315 315 316 315 312 310 310 311 312 315 317 319 321 322 324 325 326 327 327 327 327 327 326 326 326 326 326 326 325 325 325 325 325 325 325 325 326 326 326 326 326 326 326 326 326 325 325 324 324 324 324 324 324 324 324 323 323 323 323 323 323 323 322 322 322 322
327 322 325 327 328 330 331 334 335 329 332 338 329 324 332 336 332 328 326 328 330 327 326 325 324 323 320 318 316 315 315 315 315 315 314 312 311 311 311 311 313 315 317 319 321 323 325 325 326 327 327 327 327 326 326 326 326 325 325 325 325 325 325 325 325 325 325 325 326 326 326 326 326 326 326 326 326 326 326 325 325 325 325 324 324 324 324 324 324 324 324 323 323 323 322 322 322
323 325 327 327 330 332 333 334 332 332 335 338 332 326 330 336 336 333 329 329 331 328 328 328 327 327 324 321 320 317 315 315 315 315 313 311 310 310 311 310 311 313 315 317 320 322 324 325 326 326 326 327 327 327 326 326 326 325 325 325 325 326 325 325 324 324 325 325 325 326 326 326 326 326 326 326 326 326 326 326 325 325 325 325 325 325 325 324 324 324 324 323 323 322 322 322 322
324 331 332 331 332 333 334 331 328 334 337 335 330 325 328 335 337 335 332 331 332 330 330 331 330 331 330 328 326 323 319 316 314 314 313 311 311 310 309 310 310 312 313 315 318 321 323 324 325 326 326 326 327 327 327 326 326 326 325 326 326 326 325 325 325 325 325 325 325 325 325 325 325 326 326 326 326 326 326 326 326 326 325 325 326 325 325 325 324 324 324 324 323 323 323 322 322
327 332 332 334 334 333 334 333 332 336 334 327 324 324 327 332 332 332 332 330 330 329 327 329 332 333 333 332 330 327 325 321 317 317 314 312 313 310 308 309 310 310 312 314 316 319 321 323 324 325 326 326 326 327 327 326 326 326 326 326 326 326 325 325 325 325 325 325 325 325 325 325 325 326 325 326 326 326 326 326 326 326 326 326 326 325 325 324 324 324 324 324 324 323 323 323 323
329 329 330 333 334 334 335 333 332 334 331 323 321 325 330 332 329 327 327 327 327 327 325 326 327 328 328 328 325 322 322 321 319 320 318 316 313 309 307 308 308 309 311 313 315 317 320 322 324 325 325 325 326 327 326 327 326 327 327 326 327 326 325 326 326 326 326 326 326 325 325 326 326 326 326 326 326 326 326 326 326 326 326 326 326 326 324 323 323 323 323 324 324 324 324 324 324
329 329 331 332 334 336 334 334 335 335 332 324 322 329 333 335 333 326 325 327 326 326 325 323 324 323 322 321 319 318 318 317 316 316 318 317 311 306 307 307 307 308 310 311 313 316 319 321 323 324 325 325 326 326 326 327 327 327 327 327 327 326 326 326 326 326 326 326 326 326 326 326 326 326 326 326 326 326 326 326 326 327 327 327 326 326 325 323 323 323 323 324 324 324 325 325 325
330 332 334 332 333 337 333 331 332 335 335 328 325 330 332 333 331 324 324 327 325 325 324 322 323 320 316 317 318 318 317 315 314 313 315 315 309 305 306 306 307 307 308 310 312 314 317 320 322 323 324 325 326 326 327 327 327 327 327 327 327 327 326 326 326 327 326 326 326 326 326 327 327 326 326 326 326 326 327 327 327 327 327 327 327 326 325 324 324 324 324 324 324 325 325 325 325
330 332 333 330 331 336 334 327 325 330 336 332 327 330 332 332 331 325 325 327 326 327 326 326 327 322 320 323 322 319 316 314 313 312 312 313 308 304 304 305 306 307 307 308 310 313 316 318 321 323 323 325 326 326 326 327 327 327 327 327 327 327 327 327 327 327 326 326 326 326 327 327 327 327 326 326 326 326 327 327 327 327 327 327 327 327 326 326 325 325 325 324 325 325 325 325 325
330 331 330 327 328 334 336 333 330 331 335 334 329 330 335 336 333 328 327 328 328 328 329 328 329 330 329 327 322 318 315 312 311 311 310 311 306 302 302 303 304 305 306 307 309 311 315 317 319 321 322 324 325 325 326 326 327 327 327 327 327 327 327 327 327 327 327 326 326 327 327 327 327 327 326 326 326 327 327 327 327 327 327 327 327 327 327 326 326 326 325 325 325 325 325 325 325
329 329 327 329 333 333 333 335 335 333 334 336 331 327 331 333 331 329 330 332 331 330 329 326 329 334 332 328 325 322 318 315 314 314 315 314 307 300 300 302 303 305 305 306 307 310 313 316 318 320 321 323 324 324 326 326 326 327 327 327 327 327 327 327 327 327 326 326 327 327 327 327 327 327 327 327 327 327 327 327 327 327 327 327 327 327 326 326 326 326 325 324 324 324 324 325 325
327 327 326 331 334 331 332 335 336 334 333 334 332 328 330 330 327 328 330 331 330 330 330 328 331 332 330 331 335 333 330 326 323 322 324 320 307 299 301 303 303 305 305 306 307 308 310 313 316 319 320 321 323 323 324 325 326 326 326 327 327 327 327 327 327 327 326 327 327 328 327 328 327 327 327 327 327 327 327 327 327 327 327 327 326 327 326 326 326 325 324 324 323 323 324 324 324
327 328 328 330 329 329 333 334 334 334 332 333 334 332 331 329 325 326 328 328 327 330 331 330 330 326 324 329 333 332 332 330 326 325 327 322 308 300 302 304 304 305 306 306 307 307 308 310 313 316 318 320 321 322 323 324 325 325 326 326 326 326 327 327 326 327 327 327 328 328 328 328 327 327 327 327 327 327 327 327 327 326 327 326 326 327 326 326 326 325 325 325 324 324 324 324 323
327 328 328 328 328 330 333 332 330 330 330 333 334 331 329 329 325 322 324 326 326 327 328 328 327 322 320 322 322 321 323 324 323 321 320 320 309 301 302 304 304 305 306 307 307 307 308 309 310 312 315 317 319 320 321 322 323 324 325 325 325 325 325 326 326 326 326 327 327 328 328 327 327 327 327 327 327 327 326 326 326 326 326 327 326 326 326 325 325 324 324 324 323 323 324 324 324
Wind_Speed
7 8 8 6 4 1 2 4 1 2 3 1 1 1 2 2 0 2 2 2 2 1 2 1 3 4 3 2 3 3 1 3 4 2 1 1 8 21 17 12 16 16 16 17 16 15 14 13 10 11 12 10 10 11 11 10 9 9 10 11 11 11 11 11 11 11 11 11 12 12 13 14 12 11 12 12 12 14 14 15 16 17 17 16 16 16 16 16 17 16 16 16 15 16 17 17 17
7 8 7 3 5 3 1 2 2 2 4 0 2 1 2 1 0 4 5 4 2 1 2 3 4 3 4 4 2 3 1 2 2 1 3 1 13 19 14 14 18 16 16 17 16 15 14 13 11 11 11 11 10 11 12 11 9 7 7 8 10 10 11 11 10 10 10 11 12 13 14 13 12 12 13 13 13 15 15 15 16 16 16 15 15 15 16 16 16 16 15 15 15 16 16 16 16
6 7 7 2 3 4 1 2 1 0 2 1 2 2 1 1 4 5 6 4 2 3 3 4 3 2 3 3 1 1 1 1 2 2 2 6 12 14 16 18 18 16 16 16 16 15 14 13 11 10 10 12 12 11 12 12 12 10 9 8 9 9 10 10 9 10 10 11 12 14 14 12 12 13 13 13 14 15 16 16 15 15 15 14 14 15 15 15 16 15 15 14 14 15 15 15 15
4 6 8 1 2 3 3 3 1 2 2 2 2 3 2 4 6 4 4 3 3 2 2 3 2 0 1 1 1 1 1 1 3 4 3 10 13 14 18 19 19 17 16 16 16 15 14 13 11 10 10 12 12 11 11 11 12 11 11 10 10 9 9 10 9 9 9 11 11 12 13 12 12 13 12 13 13 14 15 14 14 15 15 14 14 14 14 14 15 15 15 14 13 13 13 14 14
2 6 8 2 2 1 3 2 1 2 3 3 1 3 4 5 5 3 1 3 3 1 1 2 1 0 1 1 1 1 2 1 3 6 6 13 15 15 17 19 20 18 17 17 16 16 14 14 11 10 9 11 13 11 10 10 10 9 10 12 11 9 9 10 8 8 8 11 11 11 12 12 13 12 11 11 12 13 13 12 13 14 14 14 13 13 13 13 14 14 14 13 13 13 12 13 13
2 3 8 7 3 1 2 1 1 1 4 4 1 3 4 5 5 4 4 1 2 0 1 1 1 2 1 0 1 1 2 1 4 6 9 16 16 15 16 17 20 18 18 18 17 16 14 13 11 10 9 10 12 11 10 10 10 9 10 12 11 9 10 10 8 6 7 10 11 10 10 12 13 12 10 9 10 13 13 13 13 13 13 13 13 12 12 13 13 13 12 12 12 11 11 10 11
2 1 4 6 2 2 2 2 2 2 3 3 2 3 3 5 4 6 5 2 1 0 1 1 2 3 1 1 1 2 1 2 4 5 12 18 17 16 16 17 18 18 19 19 18 16 14 12 11 10 9 10 11 10 10 11 11 10 11 12 11 10 9 9 7 5 7 10 10 8 9 11 12 11 9 9 11 13 12 13 13 13 13 12 12 12 12 12 11 11 11 11 10 10 9 10 11
5 2 1 3 1 3 3 2 2 2 2 2 3 3 3 5 5 7 6 3 1 1 1 1 1 2 1 1 1 2 1 4 4 5 14 19 19 17 16 17 17 18 19 19 18 16 14 12 11 10 10 10 11 11 10 11 11 10 12 12 10 10 9 9 8 6 8 10 9 8 8 10 10 9 9 10 11 12 12 12 12 12 12 12 12 11 11 11 10 10 10 10 9 9 9 9 10
5 3 0 2 1 2 1 1 2 3 3 3 3 3 2 4 4 6 6 2 1 1 1 2 2 1 1 1 0 2 1 5 5 7 17 20 19 17 16 17 16 18 19 20 18 16 14 12 11 10 10 11 12 12 11 11 10 10 12 12 10 10 9 10 9 7 7 8 8 8 8 8 8 9 9 10 10 10 11 11 11 11 11 11 11 10 10 9 9 9 9 9 9 8 9 9 9
4 3 1 1 1 0 2 1 2 2 3 3 3 4 3 5 4 4 5 2 1 3 2 1 1 1 2 2 1 0 1 5 9 13 18 21 20 18 17 15 16 18 19 20 18 16 14 13 12 10 10 12 13 13 12 12 11 11 11 11 10 10 10 10 9 7 7 8 7 8 7 7 7 7 8 7 8 9 9 10 11 10 11 10 10 10 10 9 9 9 9 8 8 7 7 8 8
2 3 2 2 2 1 2 2 3 3 3 3 3 4 4 5 5 3 2 1 1 2 3 1 1 2 2 1 1 1 2 7 14 17 19 21 20 19 17 14 15 17 20 20 18 16 15 14 12 10 10 12 13 12 13 12 11 13 11 10 11 10 11 12 10 7 7 8 8 8 7 6 6 6 6 6 7 8 8 9 10 9 9 9 9 9 9 9 9 8 8 8 7 6 5 6 7
1 2 3 2 2 2 3 2 3 3 4 2 2 3 3 5 5 4 3 3 2 2 3 4 2 3 3 2 2 1 4 11 15 18 19 21 21 20 19 16 15 17 20 20 18 16 15 15 12 11 11 11 11 10 12 12 11 13 11 9 10 10 10 12 10 7 7 7 8 8 7 7 6 6 5 6 7 9 8 8 9 8 8 9 9 9 9 9 8 7 7 7 6 5 4 4 5
2 1 4 1 2 2 2 2 3 3 4 2 3 2 4 6 5 6 6 3 3 4 4 5 3 2 2 2 2 1 5 13 16 18 20 21 21 19 19 18 16 17 21 20 18 17 16 15 13 12 11 11 11 9 10 12 12 12 11 9 9 9 10 11 9 7 8 8 8 7 7 7 7 6 5 6 7 8 8 8 8 7 8 8 8 9 9 8 7 7 6 6 5 4 3 3 3
2 2 3 2 1 2 3 1 2 2 3 3 2 3 4 3 4 6 7 4 5 5 2 4 4 2 2 2 2 1 6 15 18 20 22 22 20 19 19 19 17 18 21 20 19 18 18 16 14 12 11 11 11 10 11 12 13 12 11 10 8 8 9 11 10 9 10 9 9 8 8 7 7 6 5 5 5 6 7 8 8 7 7 7 8 9 9 7 7 6 5 4 4 3 3 2 2
3 1 3 2 1 1 3 1 2 3 4 3 4 5 4 1 3 5 6 6 5 4 1 2 3 2 2 3 2 2 9 18 19 23 24 22 20 18 19 19 19 19 21 21 19 19 19 17 15 13 12 11 11 12 12 12 13 12 10 10 9 10 10 11 12 11 11 10 9 9 9 8 7 6 5 4 2 3 5 7 7 6 6 7 9 9 8 7 6 5 4 3 3 3 2 2 2
2 2 3 2 2 2 4 2 2 2 4 4 2 4 5 2 3 4 4 4 2 1 2 2 2 1 2 5 1 2 14 21 20 24 23 20 18 17 16 17 18 19 21 21 20 20 20 18 16 15 13 11 11 11 12 12 13 12 10 10 9 10 11 11 12 12 11 11 9 9 9 8 7 7 6 4 3 2 2 4 5 6 7 8 10 9 8 7 6 5 4 3 3 3 2 2 2
1 3 2 2 3 3 4 4 3 3 4 4 2 4 8 2 1 2 1 3 3 1 1 2 2 1 2 3 3 2 19 23 23 25 21 19 17 16 16 16 17 18 20 22 22 22 21 20 19 17 15 13 12 11 11 12 13 12 11 11 11 11 11 11 12 12 12 11 10 9 9 8 7 7 6 5 4 3 3 3 5 6 7 9 10 9 8 7 6 5 4 3 2 2 2 2 2
1 2 3 4 4 4 5 7 6 3 2 5 5 7 8 5 3 2 1 3 2 1 2 2 2 4 4 3 3 8 22 24 24 25 21 20 17 17 17 18 18 18 21 24 23 23 23 22 20 19 17 15 14 12 11 12 13 13 13 13 12 12 12 12 12 13 12 12 12 10 9 8 8 8 7 7 6 5 5 5 5 7 7 8 9 9 8 7 6 5 3 2 2 1 1 1 1
2 3 3 5 4 4 6 7 6 3 2 5 5 5 6 6 6 4 3 1 1 2 3 3 3 5 4 2 5 16 22 23 24 24 23 21 19 19 19 18 20 20 22 26 24 22 25 23 22 22 18 18 17 15 14 13 14 14 15 14 14 14 14 13 13 13 13 13 13 12 10 9 9 9 8 8 7 6 6 6 6 7 8 8 9 8 7 7 6 4 3 3 2 2 1 1 1
2 3 3 6 5 4 4 7 7 5 3 6 5 3 3 4 5 5 4 3 2 5 5 3 5 8 5 3 10 17 18 20 23 22 22 20 19 19 19 19 21 22 21 24 23 22 27 25 24 25 20 20 19 18 17 16 15 15 16 16 16 16 15 15 15 13 12 13 14 13 12 11 10 10 10 10 9 8 7 7 7 7 8 9 9 9 8 7 7 6 5 4 3 2 2 2 2
2 3 5 5 4 3 5 7 7 4 4 5 5 4 3 4 3 4 7 5 3 6 7 8 10 10 7 5 11 16 17 19 21 21 20 19 20 19 19 19 21 22 20 21 23 22 25 26 26 26 22 22 21 20 20 18 17 16 16 16 16 17 17 17 16 15 13 13 14 14 13 12 12 11 11 11 11 10 9 8 8 8 8 9 9 10 9 9 8 7 6 5 5 4 3 3 3
3 3 4 3 5 3 4 6 5 4 3 4 6 5 4 3 2 4 9 7 6 6 8 10 10 8 8 9 13 14 15 19 20 20 20 19 21 21 20 19 19 21 21 23 24 23 24 28 29 26 25 24 22 22 21 20 19 18 17 16 16 17 19 19 18 17 15 14 14 15 14 13 13 13 13 13 12 12 11 10 9 9 9 9 10 11 11 10 9 9 8 6 6 6 5 5 5
3 4 2 4 5 3 3 3 4 5 6 6 7 5 4 5 3 3 8 9 5 4 5 7 8 8 11 12 13 13 13 17 21 23 23 22 22 22 21 21 21 22 24 25 25 27 27 29 30 27 27 26 24 23 22 21 20 19 18 17 16 17 18 19 19 18 16 15 15 15 15 15 14 14 14 14 14 13 13 12 11 10 10 11 11 12 12 12 11 10 9 8 8 7 7 7 6
3 4 2 4 3 2 3 3 5 5 6 7 4 4 5 8 5 3 6 9 4 3 3 2 5 9 13 12 12 14 16 19 22 24 24 23 23 23 23 22 22 23 24 24 24 27 29 29 30 29 28 27 25 24 24 23 22 21 19 18 17 17 17 18 18 17 17 16 16 15 15 16 16 15 15 15 15 14 14 13 12 11 11 11 12 12 13 13 12 11 10 9 9 9 9 8 8
3 5 2 3 1 1 2 3 4 4 4 3 5 5 6 8 5 3 8 9 5 5 1 2 5 8 9 10 12 13 14 18 19 21 21 21 22 23 23 22 22 22 23 24 25 26 27 29 30 30 29 27 27 26 25 25 23 22 21 20 19 18 18 17 16 16 17 17 17 17 17 17 17 17 16 16 16 15 15 14 13 12 11 11 12 13 13 13 13 12 11 11 10 10 10 10 10
5 6 3 4 2 2 2 2 4 4 3 3 6 5 5 2 2 3 9 8 5 4 4 4 6 7 7 8 11 12 12 16 19 19 20 20 21 22 23 23 23 23 23 23 26 27 26 27 29 31 30 29 28 28 26 26 26 24 23 22 21 19 19 17 16 16 17 17 18 18 18 18 18 18 17 17 17 16 15 13 12 12 11 11 12 12 12 13 13 12 12 12 12 12 12 11 11
4 6 4 4 3 2 2 2 3 3 2 4 7 6 4 2 1 4 6 4 5 5 4 4 6 7 8 7 8 12 13 17 20 18 17 17 20 23 24 25 25 25 25 25 26 27 26 26 29 31 31 30 30 29 28 27 27 26 25 23 22 21 20 18 17 17 17 17 18 18 18 18 18 18 18 18 18 16 15 13 12 12 11 11 11 11 11 12 13 13 13 13 13 13 13 13 13
5 8 5 2 2 1 2 3 3 2 1 5 6 3 3 2 1 6 4 2 5 7 5 4 6 6 7 8 7 9 12 16 18 17 18 20 24 27 28 28 28 26 26 27 27 27 26 27 28 30 31 31 32 31 30 29 28 28 26 24 23 22 20 19 19 18 18 17 17 18 19 19 19 19 19 19 18 17 16 15 13 13 12 11 10 10 10 11 13 13 14 14 14 15 15 14 14
5 7 5 1 4 1 3 3 2 2 3 4 4 1 5 5 5 7 5 4 4 5 5 4 6 6 5 7 6 7 11 13 16 19 24 27 28 29 31 33 32 30 29 29 28 28 28 28 30 30 30 32 33 33 32 31 30 29 27 26 24 23 22 21 21 20 18 18 17 18 19 19 21 20 20 20 19 19 18 17 16 15 14 12 11 10 11 12 12 14 14 15 16 16 16 16 15
4 3 4 2 2 3 5 2 2 3 3 3 3 3 8 8 8 9 6 6 6 4 6 6 6 6 5 6 6 7 10 13 17 25 29 28 28 28 31 33 33 33 32 30 30 30 31 31 31 31 31 32 34 34 35 34 32 30 29 28 26 24 23 23 22 21 19 19 18 18 18 19 21 22 21 21 21 21 20 19 18 16 15 14 13 12 12 12 13 14 15 16 17 17 18 17 15
4 3 2 2 3 4 5 2 5 5 2 2 4 5 7 4 7 11 7 6 8 7 7 7 6 6 5 5 7 7 9 14 20 25 27 27 27 27 30 31 31 33 31 31 33 33 33 32 31 32 32 32 33 34 35 35 34 32 31 29 28 26 25 24 23 23 22 20 19 19 19 19 20 22 23 23 23 23 22 22 20 17 15 15 15 14 14 14 14 15 16 17 18 18 19 18 16
2 4 2 1 3 4 6 2 7 6 1 1 4 4 5 3 6 7 3 4 7 8 8 7 7 7 7 6 7 7 8 13 18 22 24 26 27 28 30 31 31 33 32 33 33 32 32 32 33 33 32 33 33 33 33 34 34 33 33 31 30 28 27 26 25 24 23 22 21 20 20 19 19 21 23 25 25 25 24 24 22 18 16 17 17 16 16 16 16 16 17 18 19 19 19 18 17
1 4 3 2 4 3 3 2 5 4 2 2 4 5 3 2 5 3 2 4 6 7 8 8 8 8 7 6 6 7 6 8 13 20 25 27 28 29 31 32 32 34 34 34 33 32 33 33 33 33 33 33 33 33 32 33 33 33 33 32 31 30 29 28 26 25 24 24 23 22 21 20 20 20 21 23 25 25 25 25 23 20 19 19 18 18 18 17 17 18 18 18 18 19 19 18 18
2 2 3 2 4 4 2 3 4 3 3 4 6 8 7 3 4 4 1 5 6 6 9 9 9 7 7 6 5 6 6 7 10 19 26 28 29 29 30 31 32 33 33 34 34 34 34 33 34 34 33 33 32 33 32 32 32 32 32 32 32 31 30 30 28 27 26 25 25 24 23 22 21 21 21 21 22 23 24 24 24 23 22 22 21 21 21 19 18 19 19 19 18 19 19 19 19
7 5 4 1 3 4 4 3 3 5 4 5 5 9 12 6 5 6 3 5 6 8 9 8 8 7 6 6 6 6 7 8 12 20 25 26 28 29 30 31 31 32 33 33 34 34 34 33 33 34 34 34 33 33 32 32 32 32 32 32 32 32 32 31 31 30 29 28 27 26 25 24 24 23 22 22 22 22 22 23 24 25 25 25 24 24 23 22 21 21 21 21 20 20 20 20 20
10 7 6 4 3 4 4 4 4 6 4 5 7 10 14 9 8 10 8 4 5 7 6 6 7 6 5 6 7 8 8 9 14 22 23 23 27 29 30 31 31 32 33 33 34 34 34 34 33 34 35 34 34 33 33 32 32 32 32 32 32 33 32 32 32 32 31 31 29 28 27 27 26 25 24 24 23 23 23 23 23 24 25 26 26 26 25 24 23 23 23 22 22 22 21 21 20
11 8 6 6 5 4 4 3 3 4 5 5 9 12 15 11 9 12 8 3 5 8 9 9 8 7 7 8 9 10 10 10 14 21 22 23 26 28 30 31 30 30 31 33 33 35 36 35 35 36 36 35 35 35 35 34 34 33 33 34 35 34 34 34 34 34 33 33 31 30 30 29 28 27 26 25 25 25 25 24 24 24 25 26 27 27 26 25 24 24 24 23 23 23 23 22 21
10 8 6 6 6 5 4 3 3 2 4 4 4 8 16 12 10 11 5 5 11 12 12 13 12 11 10 11 13 11 8 8 11 14 16 21 24 26 28 29 30 31 33 35 35 37 37 36 37 37 36 36 37 38 37 37 37 36 35 35 36 36 35 35 35 34 34 34 33 32 32 31 30 29 28 27 27 27 26 26 26 25 26 27 27 27 26 26 26 25 24 24 24 23 24 22 20
8 6 6 6 4 2 2 2 2 1 4 3 2 4 14 12 9 10 7 10 15 13 13 14 13 13 12 12 13 11 9 9 10 10 12 20 24 25 27 28 31 33 35 36 36 37 36 37 39 38 37 37 38 38 39 39 38 37 36 35 34 34 34 34 33 33 33 33 33 33 33 32 32 30 29 28 28 28 28 28 28 27 27 27 28 28 28 27 27 27 26 25 23 23 23 23 21
6 6 6 4 4 4 2 3 1 1 2 1 1 4 11 10 6 9 11 13 15 12 12 13 12 13 14 13 11 11 12 12 12 10 10 16 21 23 26 28 31 33 34 34 35 36 36 38 40 39 38 38 39 39 39 39 37 36 35 34 33 31 31 30 30 31 32 32 32 32 32 32 32 31 30 30 30 30 29 29 29 29 28 29 29 30 30 29 29 28 27 26 24 22 22 22 22
4 6 7 5 5 5 2 1 2 1 2 1 0 4 9 9 8 10 9 9 14 12 10 11 12 13 14 12 11 11 12 12 12 11 10 12 17 23 28 31 31 33 34 35 36 38 39 40 40 40 39 39 40 39 39 38 36 35 33 31 30 29 28 28 28 30 31 31 32 31 31 31 31 31 30 30 31 31 31 30 30 30 29 29 30 30 31 31 30 30 28 27 26 26 24 22 20
4 5 6 8 8 5 5 3 3 3 2 0 1 3 5 5 6 9 5 4 11 9 8 14 15 14 12 11 12 12 11 11 11 12 10 12 18 23 27 30 31 32 35 37 38 39 40 41 40 40 40 40 40 40 39 37 37 36 34 32 31 29 28 30 33 33 32 32 33 31 30 30 29 30 30 30 31 31 31 31 30 30 30 30 30 30 31 31 31 31 30 29 29 29 27 22 20
4 5 6 8 9 8 7 5 3 1 3 1 2 3 5 5 6 7 3 4 11 7 6 13 13 12 11 10 12 11 11 11 11 11 10 12 17 20 23 28 32 34 36 36 36 39 40 39 39 40 41 41 40 39 38 37 37 37 37 37 36 33 33 35 36 34 33 34 33 32 31 30 29 29 29 29 29 30 30 30 30 30 30 30 30 30 31 31 31 31 30 30 29 29 27 24 22
4 5 9 10 9 9 8 6 4 2 2 1 2 2 4 8 6 4 2 4 11 10 10 13 11 11 11 11 12 12 13 12 11 11 10 12 17 20 24 30 35 37 36 35 37 39 40 39 40 40 40 41 40 38 38 38 39 39 39 38 37 36 37 37 33 31 32 32 32 32 31 30 29 28 28 27 27 28 28 28 29 29 30 30 30 31 32 32 31 31 30 30 30 28 28 28 26
3 5 10 9 8 7 6 5 3 1 2 2 2 3 2 8 5 1 1 4 11 14 14 12 10 12 11 11 12 13 13 12 11 12 12 13 18 23 27 29 32 35 35 36 39 40 39 40 39 39 39 39 39 38 38 39 39 40 39 38 37 37 38 36 31 29 30 30 31 31 30 29 29 28 28 27 26 26 26 27 27 27 28 28 29 30 31 30 30 30 30 30 30 29 29 29 28
3 6 9 7 5 5 4 4 3 3 2 6 5 5 4 8 6 3 2 3 11 13 10 8 9 11 10 10 11 11 9 9 10 11 12 14 20 26 26 25 27 30 33 35 37 36 37 37 37 37 38 38 38 38 39 39 39 39 38 37 37 38 38 35 31 30 30 30 30 30 30 29 29 28 28 27 26 26 26 25 25 26 27 27 28 28 29 29 29 29 30 30 29 30 30 30 30
7 7 9 7 5 4 3 2 4 1 5 5 8 10 6 7 5 5 5 5 8 9 6 6 8 9 9 7 7 8 8 8 8 9 11 13 18 22 22 23 26 29 30 32 33 33 34 34 34 36 37 37 37 38 38 39 39 39 39 38 39 40 38 33 32 32 32 31 32 31 31 29 29 29 28 27 27 26 26 25 25 26 26 26 27 27 27 27 28 28 28 28 29 29 29 29 30
9 5 6 4 3 3 3 3 2 3 5 2 7 11 9 8 5 4 5 4 3 6 7 7 8 8 7 6 5 7 7 7 7 8 8 9 12 15 17 22 26 26 27 31 33 33 32 33 34 35 36 37 36 37 38 39 39 39 40 40 41 41 38 34 34 35 34 34 34 33 31 30 29 29 28 28 28 27 26 26 26 26 26 26 27 26 27 26 26 26 26 27 28 28 28 28 28
8 6 8 5 1 1 2 2 2 5 4 2 3 7 6 10 9 6 9 8 7 8 8 7 8 7 7 6 7 6 5 6 7 7 7 7 8 10 14 20 23 24 27 31 32 32 33 34 35 35 37 37 37 37 38 39 39 40 41 41 42 40 37 36 37 37 35 35 35 33 31 31 31 30 30 31 30 28 27 27 27 26 26 26 26 25 25 25 24 25 25 26 27 27 26 27 28
9 10 10 7 5 4 7 6 3 4 3 2 3 3 2 5 6 10 14 15 13 9 9 9 8 7 8 7 6 5 4 6 6 7 7 7 7 9 13 18 21 23 28 30 31 32 33 33 35 36 37 37 38 38 38 38 40 41 41 42 42 39 38 38 39 38 37 35 34 33 33 33 32 33 33 32 31 28 27 27 26 26 26 25 25 25 25 24 24 24 25 26 27 27 27 27 28
9 8 7 7 7 5 6 6 4 3 1 2 2 2 3 4 2 6 9 10 10 7 6 7 6 8 7 6 6 6 7 7 7 7 7 7 9 11 14 17 19 23 26 29 31 32 32 33 34 36 37 37 37 38 38 39 40 41 42 41 41 40 39 39 39 39 38 36 35 34 33 34 34 34 34 32 30 28 26 26 25 25 25 25 25 24 24 24 23 23 24 25 26 26 27 28 29
5 5 6 7 6 5 3 3 4 3 1 1 3 3 3 3 7 9 6 7 8 8 7 5 7 7 5 6 8 8 9 8 7 7 8 9 10 13 15 17 20 23 24 27 30 31 32 33 34 36 37 36 35 38 39 40 41 41 41 41 41 40 39 39 39 39 38 36 35 35 34 35 35 34 33 32 30 28 27 26 25 25 25 24 24 24 24 23 22 23 25 26 27 27 27 30 30
5 5 7 5 4 6 4 2 1 3 2 3 4 6 4 3 11 13 11 13 12 10 8 6 8 6 4 7 9 8 9 8 7 7 8 9 9 12 16 19 21 22 22 25 28 30 32 32 32 34 35 34 34 36 38 39 39 39 39 40 39 39 39 40 40 40 38 36 35 35 35 35 35 34 33 31 29 28 27 26 25 25 24 24 24 24 24 23 23 24 24 25 27 26 27 29 29
7 8 8 5 3 3 4 1 2 3 4 4 4 9 4 1 7 5 5 13 14 11 7 5 7 6 6 9 9 9 8 7 7 8 8 8 8 11 15 18 20 21 21 23 25 27 29 30 31 32 33 33 34 35 36 37 37 37 38 39 39 39 40 40 40 39 37 35 35 35 35 35 35 34 32 30 29 27 27 26 26 26 25 24 23 23 23 23 23 24 24 25 26 24 25 27 25
5 7 9 7 3 3 3 3 2 2 5 4 2 4 3 8 9 3 1 9 10 8 6 5 7 7 7 8 9 9 7 6 7 7 8 7 7 10 14 15 16 18 19 20 20 22 24 27 29 30 32 33 34 34 35 35 36 37 38 38 38 38 38 39 38 37 35 34 35 35 35 35 35 33 31 30 28 28 27 27 26 26 25 24 24 23 23 23 23 24 24 24 24 22 24 26 26
2 5 7 4 3 5 5 4 3 3 5 5 3 2 3 8 8 6 8 9 8 7 5 5 8 7 6 6 7 7 5 5 6 6 6 5 5 9 10 9 10 12 15 17 17 18 21 23 26 27 29 30 30 31 33 34 35 36 36 36 36 37 37 37 36 34 34 35 35 35 35 35 34 32 31 29 28 28 27 27 26 25 25 25 25 24 24 24 24 25 24 25 25 24 24 25 24
4 7 9 5 3 3 2 3 3 3 4 5 4 5 6 5 6 10 13 11 11 10 6 7 10 9 7 7 7 6 4 5 6 6 6 5 5 6 5 4 6 8 11 14 16 17 18 20 23 26 27 28 29 30 31 33 34 34 35 35 35 35 34 34 33 33 34 35 35 35 35 34 33 32 31 29 28 27 27 26 25 25 25 24 24 24 24 24 24 24 25 26 25 24 23 24 23
7 8 9 9 7 4 3 5 3 2 3 3 3 8 8 3 5 9 10 9 10 8 5 7 10 9 7 7 7 6 5 6 7 6 6 5 5 7 6 5 5 6 9 11 14 17 18 20 22 23 25 27 29 30 30 32 32 32 34 34 33 33 32 31 32 32 34 35 35 35 35 34 33 32 30 28 28 27 26 25 25 25 24 23 23 23 23 22 23 24 24 24 23 22 23 24 24
Wind_Direction
324 326 330 341 352 317 353 44 90 321 78 83 290 204 237 219 90 171 173 177 172 214 192 129 137 137 113 140 179 170 155 180 177 151 226 291 136 150 156 155 155 158 155 149 148 146 141 137 137 140 139 145 147 138 130 121 117 114 108 103 99 96 98 102 105 108 106 106 106 107 105 104 105 102 98 95 95 90 87 89 92 95 96 95 91 86 84 82 83 86 88 89 83 76 79 78 76
324 330 339 345 1 4 270 69 98 326 59 131 251 181 258 332 307 201 185 190 202 186 142 123 118 90 75 84 108 124 155 244 201 223 295 160 143 152 157 159 160 162 160 151 150 149 144 141 139 144 144 140 138 145 141 129 124 115 110 103 104 104 101 104 109 114 117 116 109 107 109 108 102 97 97 94 94 95 93 92 93 96 98 98 94 89 86 84 84 86 88 88 84 81 80 78 78
322 343 352 326 1 40 80 39 87 78 92 205 255 230 226 159 218 217 201 201 174 147 120 123 118 81 81 82 111 130 177 277 217 216 285 166 157 159 156 158 163 164 163 155 152 153 149 146 146 145 141 138 135 143 146 144 142 130 119 106 110 114 107 111 116 120 124 121 112 109 112 108 98 96 98 97 97 96 92 91 94 98 101 102 98 92 88 86 85 86 88 87 86 86 83 81 79
319 357 358 318 30 42 65 36 121 129 151 200 274 241 197 191 214 226 228 194 139 117 98 134 126 51 109 156 171 90 189 288 212 179 190 183 173 161 155 159 165 166 165 158 155 156 153 152 154 147 138 141 136 136 146 149 152 143 132 125 121 121 115 119 125 126 126 124 116 111 114 113 108 104 102 100 98 94 94 98 104 105 105 105 100 94 90 87 87 88 88 86 85 87 86 83 81
303 4 14 81 100 41 94 65 108 122 192 180 231 245 214 205 205 198 193 166 150 67 80 130 113 91 43 151 157 136 179 344 193 188 199 186 175 163 157 161 166 166 165 160 158 159 157 157 157 152 142 143 139 138 144 140 143 144 140 137 130 129 125 123 131 132 127 126 121 113 115 118 115 110 106 105 102 98 100 107 109 108 107 107 102 97 92 91 89 89 89 88 85 86 87 85 83
297 21 39 68 97 104 128 139 171 196 222 167 163 254 220 202 195 157 130 157 248 295 136 153 146 149 113 195 249 194 164 102 171 196 197 178 174 170 161 163 167 165 164 161 161 161 159 160 160 156 146 145 148 147 144 136 140 141 140 140 134 135 130 127 137 135 129 131 126 118 115 117 117 113 110 108 109 109 108 109 108 107 108 107 104 98 93 91 91 92 92 91 91 90 90 88 85
2 3 36 61 83 38 115 181 203 222 230 171 182 252 221 197 178 141 140 183 257 307 182 237 154 124 146 232 234 202 177 150 162 182 183 172 171 172 163 167 167 163 165 162 163 163 159 160 161 155 143 142 146 144 141 140 145 145 138 137 136 136 132 132 137 132 135 135 127 118 119 124 123 119 116 107 107 111 109 110 109 106 107 106 103 100 95 91 91 95 94 93 92 92 92 89 87
25 19 345 80 56 22 94 178 233 214 218 232 231 246 229 183 162 146 159 190 192 226 208 235 143 115 198 77 138 208 192 165 168 166 174 170 170 171 165 169 167 163 165 165 165 163 158 161 161 152 145 143 138 137 140 142 144 144 137 137 139 139 137 134 135 132 132 133 128 121 123 131 129 120 115 110 109 109 107 108 107 106 107 107 106 103 99 94 94 95 93 93 91 92 92 88 87
31 37 91 84 106 33 51 285 260 242 247 262 245 248 239 161 149 147 162 211 250 172 199 208 169 168 194 109 210 238 213 182 178 162 171 171 171 172 168 172 171 165 167 168 167 162 160 166 164 154 149 145 140 143 147 144 141 136 138 144 145 143 142 138 145 150 140 135 134 133 133 135 131 122 122 121 116 113 114 115 110 110 110 106 106 105 103 99 100 99 96 97 96 97 92 86 87
34 33 140 81 117 34 329 273 238 264 247 249 249 235 201 157 140 134 156 202 190 148 215 236 113 163 158 174 242 186 198 182 167 161 170 172 172 175 173 175 175 169 169 170 168 166 166 169 168 160 153 147 146 153 152 149 146 137 139 150 150 150 151 146 151 159 150 147 148 146 145 142 137 133 136 135 126 122 124 123 116 114 113 108 109 108 108 106 103 101 102 107 106 101 91 81 81
26 7 104 90 76 197 235 237 254 269 266 281 273 233 190 158 128 109 122 173 162 133 192 211 144 158 121 273 258 133 170 171 166 164 170 173 174 180 178 176 178 174 171 172 170 170 171 169 171 166 157 155 157 162 157 154 156 149 146 155 160 162 161 157 153 149 145 154 160 152 149 152 151 144 138 135 126 127 128 125 121 118 118 115 114 113 116 116 110 109 110 113 111 104 91 79 80
182 327 68 99 162 206 210 212 258 274 301 313 187 230 179 146 132 153 169 171 165 140 206 206 182 142 110 298 257 134 163 175 173 167 171 175 176 181 183 180 179 176 173 174 172 173 175 171 176 173 165 164 166 170 165 162 162 157 155 163 174 171 169 171 161 151 154 159 164 156 155 158 158 154 142 135 126 125 126 125 125 123 124 121 116 118 122 125 122 121 120 116 114 109 95 82 84
164 168 98 161 185 175 173 178 275 298 310 255 185 198 152 146 169 185 160 148 149 148 236 212 164 110 149 262 264 155 175 181 175 170 171 174 177 180 184 183 180 178 177 177 175 177 178 177 182 178 172 173 175 173 168 165 160 163 172 179 181 174 175 182 171 162 177 176 172 171 170 165 160 159 143 135 130 130 134 132 129 127 132 127 120 127 131 135 135 131 127 123 120 117 110 95 81
157 162 130 184 140 131 165 164 278 218 252 250 190 161 158 174 191 175 142 155 192 177 248 197 151 117 181 251 278 283 183 180 175 172 171 172 177 179 182 185 181 178 180 181 179 182 181 181 186 182 177 176 179 174 165 166 164 168 183 189 186 180 180 187 184 176 185 188 182 183 182 178 172 166 157 150 137 140 152 148 141 140 146 138 133 142 144 142 140 136 135 132 131 126 119 105 73
158 153 100 131 105 172 189 199 200 178 234 214 168 160 165 228 146 153 163 175 213 203 132 154 164 170 194 180 210 272 174 174 174 171 170 172 175 176 182 185 183 180 181 184 183 187 186 186 189 187 183 176 178 177 172 173 173 175 183 190 186 183 184 186 190 186 188 192 191 190 188 189 187 182 177 177 164 148 162 163 160 158 160 155 150 152 151 148 146 145 144 139 139 141 131 110 82
135 109 77 128 171 212 198 191 140 153 246 206 171 155 153 226 131 160 212 169 175 185 137 182 195 193 195 171 220 281 169 169 172 169 168 169 170 173 179 183 184 182 183 185 187 191 190 189 192 190 189 184 181 180 182 182 180 182 184 193 190 186 191 191 194 193 194 199 200 197 195 196 193 192 191 196 204 188 181 185 184 180 174 169 163 160 160 158 157 157 155 151 145 148 143 120 93
80 96 105 214 185 204 189 177 179 170 241 227 229 182 156 191 201 205 270 86 116 133 257 228 237 232 190 196 320 202 164 166 167 165 166 167 168 170 176 182 184 185 186 188 191 193 193 192 192 194 194 193 192 188 191 189 186 189 189 195 197 196 200 200 201 202 204 209 211 208 206 205 200 204 209 215 222 220 221 220 213 205 192 178 171 170 171 171 172 176 176 166 154 159 158 134 90
117 120 175 227 182 191 184 180 197 172 205 205 207 194 169 175 180 179 111 49 60 100 285 284 290 262 234 273 317 161 161 163 165 165 167 169 171 173 178 182 184 188 187 190 195 194 195 197 195 198 199 198 199 194 196 197 194 197 198 198 198 202 206 206 207 209 212 216 221 222 221 217 211 216 221 226 229 230 233 230 220 215 209 192 183 181 182 188 191 198 202 192 183 195 198 181 52
138 130 189 229 188 201 197 176 187 184 185 177 192 203 188 186 160 156 179 220 90 150 259 308 307 270 248 263 164 159 162 163 168 171 173 175 178 178 180 183 185 189 188 190 196 195 194 199 200 200 202 201 201 197 198 203 202 203 206 206 203 205 209 210 212 215 219 221 225 229 230 226 220 222 226 229 230 232 236 233 223 215 212 203 196 196 197 204 212 221 228 232 235 239 255 270 311
168 143 209 238 198 221 223 185 192 201 164 149 183 196 201 206 151 157 179 166 170 192 221 210 242 244 222 185 164 163 166 169 172 177 181 183 185 184 182 185 187 191 192 191 195 195 193 200 203 200 203 205 204 202 201 204 206 207 209 212 212 210 211 212 216 222 225 224 226 231 232 230 226 227 228 230 231 235 239 236 233 224 215 208 205 208 212 217 224 231 238 244 253 263 275 293 297
159 160 213 227 178 208 225 198 196 195 166 151 154 137 191 217 149 161 152 140 228 233 221 202 212 219 197 177 174 171 172 176 179 182 186 189 190 191 189 188 189 191 194 195 197 196 195 203 205 202 206 207 208 207 207 208 207 209 210 212 215 216 216 216 219 224 227 226 227 230 231 230 229 230 230 232 234 237 242 243 241 234 225 219 215 218 222 227 232 238 246 251 262 280 289 299 300
156 207 215 178 155 184 221 198 179 158 129 126 136 157 188 164 150 172 158 175 227 227 216 207 210 203 177 173 175 175 179 182 186 189 191 193 192 193 193 191 191 192 195 198 200 198 200 206 204 206 210 208 213 213 213 214 210 212 213 213 214 216 218 220 223 223 223 225 228 230 230 230 230 232 233 234 237 241 246 248 247 241 234 229 226 228 231 234 239 244 251 258 268 282 291 297 299
183 224 215 185 181 173 198 184 177 150 128 153 165 180 151 133 200 185 175 203 210 213 213 205 214 191 166 163 167 175 186 189 193 196 194 194 194 193 193 192 192 195 197 200 202 200 202 207 203 207 212 210 215 218 219 220 216 217 218 218 218 217 218 220 224 224 221 223 228 231 230 231 232 234 236 237 240 244 247 249 250 246 238 233 232 234 237 240 243 249 254 262 270 280 289 292 295
197 219 211 193 196 169 185 160 169 159 160 191 168 136 149 172 194 136 205 222 186 211 250 215 201 171 159 157 170 184 190 195 199 200 199 197 196 195 195 195 195 197 200 200 204 204 202 205 204 207 213 213 216 221 223 223 221 222 222 223 223 223 222 221 224 225 223 223 227 231 231 232 234 236 238 240 243 245 247 250 249 245 240 235 235 237 240 243 246 252 258 265 272 279 287 290 292
215 217 198 153 166 172 181 120 141 166 183 185 125 150 197 195 171 137 227 234 208 215 197 137 151 151 165 171 181 189 192 201 204 203 203 203 201 199 200 201 200 200 203 202 203 208 205 205 207 208 214 219 221 223 225 226 225 225 225 225 226 227 227 226 226 226 226 225 228 230 231 233 235 238 240 242 244 246 248 249 247 243 240 237 237 239 243 247 249 255 262 268 274 280 285 286 287
210 196 164 142 157 170 172 123 140 164 179 142 143 195 244 238 178 226 241 229 205 187 133 143 144 157 189 186 188 191 194 202 204 202 203 204 202 203 205 205 206 205 206 206 205 210 210 208 210 211 215 221 224 225 227 228 226 226 227 226 228 229 230 230 229 228 229 229 230 231 232 234 236 238 240 243 246 246 246 245 243 241 240 240 241 244 248 251 253 257 263 269 275 279 282 283 283
175 157 131 126 139 166 174 165 174 160 169 172 171 208 253 327 247 238 254 217 158 137 141 173 163 181 199 198 200 195 199 205 202 198 195 199 201 205 209 207 209 210 209 210 210 212 211 210 214 215 217 221 225 226 229 230 228 229 230 229 230 231 232 232 231 231 232 232 234 234 234 235 237 239 240 243 245 244 241 239 240 241 241 243 247 251 253 256 257 259 264 269 273 277 280 282 283
138 139 115 62 55 103 150 142 184 173 166 183 166 199 267 4 220 230 242 189 160 154 169 199 188 201 203 203 209 200 209 210 200 194 192 198 203 205 208 209 209 211 211 212 213 213 212 212 215 217 219 223 225 226 228 231 231 231 232 234 234 234 234 234 233 233 234 236 238 238 238 238 238 239 240 241 243 240 238 239 243 245 246 249 254 257 259 259 260 262 266 269 273 277 278 280 281
127 138 139 338 17 344 222 165 195 187 177 188 154 252 257 209 214 243 231 163 151 158 179 212 209 212 207 206 214 210 215 208 197 202 205 207 207 206 208 211 210 211 214 214 214 215 213 213 215 217 219 222 225 225 228 231 232 233 234 236 238 238 238 237 237 236 238 240 240 242 243 242 240 240 241 241 241 240 240 243 246 249 252 255 259 262 262 261 263 266 270 273 275 277 277 279 278
130 122 142 145 33 281 243 170 148 160 174 192 162 248 244 213 220 239 217 148 140 167 203 219 218 217 211 208 218 222 217 204 202 210 213 213 211 210 212 214 213 213 215 215 217 218 217 216 216 217 218 221 224 225 228 230 232 234 235 237 239 241 241 240 241 240 242 242 242 245 245 245 243 241 242 242 241 241 242 245 249 252 256 258 259 262 262 264 266 267 270 272 274 275 275 276 274
132 124 157 156 164 249 277 194 153 162 197 159 145 239 252 228 224 227 215 159 165 199 221 222 221 223 216 211 216 228 223 212 216 218 217 218 216 215 216 216 215 216 216 217 221 222 222 222 220 220 220 222 225 225 227 229 231 233 235 238 239 241 243 243 244 243 244 243 244 246 247 248 246 243 242 243 244 244 245 247 250 254 259 260 258 260 263 264 265 266 268 270 271 270 270 272 272
127 167 185 175 185 253 302 230 174 178 226 146 151 236 264 245 222 228 232 176 189 213 224 227 227 227 222 219 218 227 236 227 230 231 226 223 220 219 219 218 218 218 219 221 223 224 225 227 227 227 225 223 225 226 228 229 231 233 235 238 240 242 243 245 246 246 246 245 245 246 248 250 249 246 243 243 245 246 247 248 251 255 260 261 258 260 264 264 265 266 268 269 268 268 268 270 269
248 197 164 158 185 225 304 266 224 197 122 201 213 246 259 232 236 280 357 175 191 225 236 238 232 232 228 220 223 227 241 239 237 237 232 228 225 223 222 221 221 221 222 223 223 224 226 229 229 230 230 228 228 228 230 231 232 234 237 238 239 241 243 246 248 248 248 247 247 247 248 249 250 249 246 245 246 247 249 251 253 256 258 260 259 261 263 264 266 266 266 267 267 268 268 268 267
198 179 149 160 177 189 231 269 267 196 166 213 219 243 233 201 254 292 316 168 173 218 236 244 236 237 234 222 226 226 231 235 236 236 232 229 227 226 225 225 224 224 225 225 226 227 228 230 230 231 233 233 233 232 233 233 234 236 239 240 240 241 243 246 248 249 249 249 249 248 248 249 249 249 249 248 248 249 251 253 255 256 257 260 261 262 264 265 266 265 264 265 267 268 268 268 268
165 165 154 145 183 189 199 231 239 171 200 227 203 245 243 230 269 277 260 172 176 218 229 243 247 243 241 236 229 224 226 231 236 238 234 230 229 228 228 227 227 226 226 226 227 228 229 230 231 232 233 234 234 234 235 235 234 235 237 240 242 242 243 244 247 248 250 251 251 251 250 249 249 249 250 250 251 252 253 254 255 256 257 258 261 262 263 263 263 264 264 266 269 270 270 270 271
157 162 159 163 194 211 210 232 246 165 168 233 214 241 248 236 249 255 250 194 186 237 247 250 254 249 244 241 236 230 228 231 237 239 236 231 230 229 228 228 228 228 227 227 227 227 228 229 230 231 232 232 232 232 233 232 231 231 233 236 239 241 243 244 246 247 249 251 252 252 251 250 249 249 249 251 252 253 254 255 256 257 257 257 259 259 260 261 263 266 268 269 271 272 272 271 271
145 148 164 178 194 226 233 231 264 167 154 235 225 241 254 240 237 245 248 235 224 241 248 248 246 245 243 240 241 233 230 237 240 240 236 230 230 230 228 227 226 227 228 227 227 227 227 228 228 230 231 230 230 230 229 228 227 227 228 232 235 239 242 244 245 247 248 250 251 251 251 251 251 250 250 250 251 253 253 255 256 257 257 256 257 259 261 264 266 268 270 270 269 268 268 269 269
146 153 169 188 203 224 226 207 262 184 164 252 243 253 261 252 244 250 250 253 249 237 236 244 242 242 243 240 244 240 236 246 243 240 233 227 227 228 225 224 222 224 226 226 226 227 227 228 228 230 230 229 230 230 229 230 229 228 229 232 235 238 241 244 246 249 250 251 251 251 251 252 252 252 252 251 251 252 252 254 255 256 257 257 258 260 262 264 265 266 266 265 264 263 265 266 264
159 159 166 192 202 212 281 281 304 153 172 263 342 283 268 261 243 244 232 235 248 238 229 238 237 239 240 236 241 242 240 243 241 234 224 223 223 223 221 220 220 224 226 225 225 227 226 227 229 229 229 229 230 230 230 231 232 233 235 237 239 241 245 248 251 253 253 253 252 252 252 252 253 254 255 254 252 251 252 253 255 256 258 259 259 260 261 262 262 262 262 261 261 261 262 262 258
171 160 161 193 187 171 251 283 274 153 167 214 5 303 279 273 247 239 230 229 247 245 231 236 234 234 237 235 233 233 234 237 240 235 220 221 220 218 218 217 220 222 224 224 223 224 225 226 228 227 228 230 231 231 231 232 233 235 238 240 242 244 247 250 252 252 251 251 251 252 252 252 253 255 256 255 253 252 253 254 256 257 258 258 259 259 259 260 260 260 260 260 257 255 257 258 256
189 177 166 165 176 176 159 169 171 2 5 94 301 301 282 266 250 248 235 226 247 249 235 240 239 234 237 239 235 229 230 232 236 233 219 215 216 216 217 218 219 219 220 221 221 223 225 226 228 227 228 230 231 232 232 231 231 232 234 235 237 240 243 244 245 246 245 245 248 250 252 253 253 254 254 254 253 253 254 255 257 258 259 259 258 258 258 259 259 259 259 258 255 253 254 256 256
204 213 182 157 159 145 111 126 97 38 320 270 185 266 273 268 253 255 253 236 249 242 225 238 240 235 233 235 238 232 230 230 232 233 218 211 217 217 218 218 218 219 221 221 222 225 226 227 227 227 228 229 230 230 230 228 226 227 227 225 226 228 232 236 237 239 240 243 248 251 253 253 252 253 253 253 253 253 254 255 256 257 258 258 258 258 258 258 259 259 259 257 255 255 254 253 253
211 207 162 143 143 132 132 156 131 133 251 243 151 223 269 286 262 248 235 240 255 247 221 240 242 240 231 227 236 234 232 233 232 234 220 214 220 216 216 217 216 220 224 223 223 226 226 225 226 226 227 228 228 227 226 224 223 224 225 225 226 226 228 235 237 238 241 245 249 251 252 252 252 252 253 253 253 253 254 254 255 256 257 257 258 258 258 258 259 260 260 258 256 256 251 247 249
221 175 140 133 137 147 157 160 173 217 275 314 141 147 274 278 264 246 185 221 264 264 243 242 241 241 236 226 232 230 229 229 228 232 222 219 222 217 217 217 218 222 224 222 223 225 225 225 225 226 226 226 226 225 223 222 222 223 224 225 227 228 231 236 239 239 242 246 248 249 250 251 251 252 253 254 254 254 255 255 255 256 256 257 257 257 258 259 259 259 259 257 256 254 249 246 248
231 165 135 135 138 150 151 141 156 43 1 260 206 129 248 270 260 240 119 217 255 257 247 246 242 240 238 228 229 228 229 228 225 229 224 219 223 224 224 222 221 224 221 222 225 225 225 225 225 224 224 224 223 223 223 223 223 223 223 223 225 230 234 237 238 240 243 245 246 248 248 249 250 251 253 254 254 255 255 255 256 256 256 257 257 258 259 259 259 259 257 256 254 251 249 248 247
191 141 101 92 93 94 102 119 113 69 282 233 194 162 227 273 251 182 100 221 245 255 252 247 241 238 235 229 230 230 233 233 229 233 231 225 224 227 230 228 227 227 224 224 226 225 225 224 222 222 222 222 222 222 222 223 223 223 222 222 225 230 233 234 235 237 240 241 243 245 245 246 247 249 251 252 253 254 254 255 254 254 256 257 258 258 259 259 259 259 257 256 254 252 251 249 247
146 121 88 72 53 53 57 63 87 88 261 219 175 176 196 275 261 172 179 214 228 246 251 243 242 242 240 235 231 230 232 235 232 236 240 236 233 232 231 229 230 230 227 226 225 224 224 222 221 222 222 222 222 221 221 222 222 221 222 223 227 231 232 230 230 232 234 236 239 241 242 244 246 248 249 251 251 252 252 253 253 254 255 256 257 257 258 259 259 260 259 256 255 253 251 250 247
146 117 112 99 32 26 31 25 73 217 256 227 174 173 180 237 249 163 209 237 207 221 237 248 250 252 255 248 241 234 230 235 236 240 245 242 239 236 229 229 230 228 226 225 224 222 221 221 220 221 222 222 221 221 221 221 221 221 223 225 229 232 230 228 229 232 232 233 236 238 239 241 243 245 247 247 248 249 249 250 250 251 252 253 254 256 257 259 259 260 260 258 256 254 252 249 246
157 129 139 144 134 190 194 197 216 226 263 335 166 159 186 237 252 250 255 263 245 222 220 237 245 251 263 259 250 244 233 237 236 234 240 238 237 232 226 229 230 225 223 224 224 220 218 219 218 219 221 222 221 220 220 220 220 222 224 226 229 231 229 230 232 234 234 235 236 236 236 238 240 241 243 244 247 248 248 249 249 250 252 253 255 256 256 257 257 258 258 257 255 254 254 251 248
174 159 163 173 163 187 206 203 235 243 266 331 137 142 252 259 266 254 248 252 251 238 223 227 232 240 251 259 263 267 258 249 240 231 229 226 231 231 228 230 230 226 225 225 224 221 218 217 216 217 220 222 220 220 220 220 221 224 226 228 229 229 229 231 233 235 236 236 237 236 237 239 240 243 245 247 249 249 249 251 252 254 255 256 257 256 256 255 255 255 255 255 254 254 254 252 251
188 165 160 178 170 188 205 196 220 228 281 316 170 177 206 185 236 244 236 251 260 259 242 229 235 243 251 277 287 279 265 251 244 241 235 228 229 233 235 236 233 231 229 227 225 222 217 215 215 216 219 219 217 218 218 220 223 226 227 228 229 229 231 232 234 237 237 236 237 238 240 242 243 246 248 250 250 249 250 252 252 254 256 257 257 256 256 254 253 253 252 252 253 253 254 252 250
197 151 154 191 180 156 157 186 193 163 117 252 201 235 218 203 272 268 250 268 271 265 259 244 249 252 256 278 274 263 258 249 241 243 243 241 238 238 241 241 240 237 233 229 226 222 218 216 215 217 219 218 217 217 218 221 225 226 226 228 229 230 231 232 235 237 238 237 238 240 242 244 246 248 249 249 249 249 250 250 250 252 254 255 256 256 256 255 254 253 251 252 251 252 254 252 249
170 164 175 184 140 121 124 233 53 88 231 224 180 238 276 318 282 267 241 247 257 257 252 243 252 257 244 255 256 251 253 249 239 237 240 243 241 239 240 241 242 241 237 233 229 225 221 218 216 217 220 219 218 219 220 222 224 224 226 228 229 230 231 233 236 237 238 238 239 241 244 246 247 248 248 248 248 248 249 249 250 251 251 252 254 255 255 254 254 253 251 251 251 252 254 251 248
153 174 175 134 81 90 103 223 5 52 250 254 195 226 242 205 262 277 219 229 241 252 265 274 271 266 250 252 257 253 251 251 248 241 241 246 246 245 243 242 242 241 239 237 233 229 225 222 220 220 220 219 220 222 223 224 224 224 227 229 229 231 232 235 237 237 237 237 239 242 243 245 247 247 247 247 247 247 247 248 248 249 250 250 251 252 253 254 254 253 253 251 250 251 253 252 252
161 166 162 137 152 194 149 186 214 200 239 273 268 244 224 203 224 278 211 216 226 250 280 282 258 250 247 255 263 262 258 259 255 244 242 242 239 241 242 243 244 239 236 235 232 230 226 224 224 223 224 224 224 225 225 226 226 227 229 231 231 232 233 235 236 236 236 237 240 242 243 245 247 247 246 246 245 246 246 246 247 248 249 248 248 248 249 251 252 251 253 254 253 253 253 253 254
56 123 154 151 166 185 181 182 175 188 231 267 308 306 238 215 213 225 237 238 240 247 250 246 249 250 247 251 260 264 266 265 262 257 252 243 233 240 242 249 251 239 233 231 229 228 227 226 226 225 227 228 227 227 228 229 230 230 232 233 234 234 234 235 236 235 235 238 242 243 245 247 247 246 246 245 245 246 246 246 246 246 247 247 247 248 247 248 248 248 249 253 253 252 253 253 254
146 156 170 184 177 143 168 199 160 151 213 244 268 267 253 227 200 208 221 238 251 246 234 251 268 269 258 255 259 268 272 267 268 271 275 275 266 267 266 263 258 239 229 227 227 228 228 228 228 228 228 229 229 230 230 232 233 233 234 235 235 236 235 235 235 236 238 241 244 245 247 248 247 247 246 245 245 247 247 247 246 246 246 245 246 248 248 248 248 249 250 252 252 252 254 253 253
169 178 175 182 180 130 154 216 200 146 204 199 218 260 266 239 205 210 210 223 239 236 223 251 270 274 272 270 262 261 264 264 268 271 278 286 280 279 278 265 256 240 227 221 222 224 225 226 227 228 229 230 231 233 233 235 235 235 236 236 236 236 236 237 237 238 239 242 244 246 247 246 245 246 246 245 247 248 247 246 246 245 245 244 245 246 247 246 246 249 251 254 254 254 256 254 252